Upington, South Africa

9:59 AM SAST on May 28, 2017 (GMT +0200)
Upington

Weather History for FAUP - February, 2013

Change the Weather History Date:

Friday, February 22, 2013

  Actual Average Record
Temperature  
Mean Temperature 78 °F -  
Max Temperature 100 °F 90 °F 105 °F (2007)
Min Temperature 56 °F 63 °F 32 °F (2004)
Cooling Degree Days 13    
Growing Degree Days 28 (Base 50)    
Moisture  
Dew Point 25 °F    
Average Humidity 15    
Maximum Humidity 29    
Minimum Humidity 4    
Precipitation  
Precipitation 0.00 in 0.05 in - ()
Sea Level Pressure  
Sea Level Pressure 29.97 in    
Wind  
Wind Speed 4 mph ()    
Max Wind Speed 16 mph    
Max Gust Speed -    
Averages and records for this station are not official NWS values.
T = Trace of Precipitation, MM = Missing Value Source: Averaged Metar Reports

Daily Weather History Graph

Daily Weather History Graph

Search for Another Location

Airport or City:

Trip Planner

Search our weather history database for the weather conditions in past years. The results will help you decide how hot, cold, wet, or windy it might be!

Date:

Astronomy

Feb. 22, 2013 Rise Set
Actual Time 6:22 AM SAST 7:13 PM SAST
Civil Twilight 5:58 AM SAST 7:38 PM SAST
Nautical Twilight 5:29 AM SAST 8:06 PM SAST
Astronomical Twilight 5:00 AM SAST 8:35 PM SAST
Moon 4:50 PM SAST (2/22) 3:06 AM SAST (2/22)
Length of Visible Light 13h 39m
Length of Day
12h 51m
Waxing Gibbous, 88% of the Moon is Illuminated
Feb 22
Waxing Gibbous
Feb 25
Full
Mar 4
Last Quarter
Mar 11
New
Mar 19
First Quarter

Hourly Weather History & Observations

Time (SAST) Temp. Dew Point Humidity Pressure Visibility Wind Dir Wind Speed Gust Speed Precip Events Conditions
1:00 AM 62.6 °F 17.6 °F 18% 29.98 in - North 3.5 mph - N/A   Clear
2:00 AM 64 °F 25 °F 12%  in 25 mi South 2.3 mph - -  
2:00 AM 62.6 °F 24.8 °F 24% 29.98 in - South 2.3 mph - N/A   Clear
3:00 AM 59.0 °F 23.0 °F 25% 29.98 in - WNW 4.6 mph - N/A   Clear
4:00 AM 59.0 °F 23.0 °F 25% 29.95 in - West 4.6 mph - N/A   Clear
5:00 AM 59 °F 23 °F 14%  in 25 mi West 3.5 mph - -  
5:00 AM 57.2 °F 24.8 °F 29% 29.98 in - West 3.5 mph - N/A   Clear
6:00 AM 57.2 °F 24.8 °F 29% 29.95 in - West 4.6 mph - N/A   Clear
7:00 AM 59.0 °F 26.6 °F 29% 29.98 in - SW 2.3 mph - N/A   Clear
7:18 AM 62.6 °F 28.4 °F 27% 29.98 in - SSW 1.2 mph - N/A   Clear
7:42 AM 66.2 °F 32.0 °F 28% 30.01 in - SSW 2.3 mph - N/A   Clear
8:00 AM 70 °F 32 °F 14%  in 25 mi SSW 4.6 mph - -   Scattered Clouds
8:00 AM 68.0 °F 32.0 °F 26% 30.01 in - SSW 3.5 mph - N/A   Clear
8:27 AM 71.6 °F 30.2 °F 22% 30.01 in - South 3.5 mph - N/A   Clear
9:00 AM 75.2 °F 24.8 °F 15% 30.01 in - SSW 3.5 mph - N/A   Clear
9:11 AM 78.8 °F 24.8 °F 14% 30.01 in - SW 1.2 mph - N/A   Clear
9:38 AM 82.4 °F 24.8 °F 12% 30.01 in - WSW 1.2 mph - N/A   Clear
10:00 AM 84.2 °F 23.0 °F 11% 30.01 in - West 1.2 mph - N/A   Clear
10:35 AM 87.8 °F 24.8 °F 10% 29.98 in - WSW 2.3 mph - N/A   Clear
11:00 AM 91 °F 22 °F 4%  in 25 mi WSW 4.6 mph - -  
11:00 AM 89.6 °F 23.0 °F 9% 30.01 in - WSW 3.5 mph - N/A   Clear
12:00 PM 93.2 °F 23.0 °F 8% 29.98 in - WSW 5.8 mph - N/A   Clear
1:00 PM 95.0 °F 24.8 °F 8% 29.98 in - SW 6.9 mph - N/A   Clear
2:00 PM 95 °F 22 °F 4%  in 25 mi South 10.4 mph - -  
2:00 PM 95.0 °F 23.0 °F 8% 29.95 in - South 9.2 mph - N/A   Clear
3:00 PM 95.0 °F 19.4 °F 6% 29.92 in - WSW 11.5 mph - N/A   Clear
4:00 PM 98.6 °F 23.0 °F 7% 29.92 in - WSW 13.8 mph - N/A   Clear
5:00 PM 96.8 °F 21.2 °F 7% 29.89 in - SW 16.1 mph - N/A   Clear
6:00 PM 95.0 °F 21.2 °F 7% 29.89 in - SW 12.7 mph - N/A   Clear
7:00 PM 93.2 °F 24.8 °F 9% 29.89 in - SSW 6.9 mph - N/A   Clear
8:00 PM 85 °F 25 °F 5%  in 25 mi SSW 6.9 mph - -  
8:00 PM 84.2 °F 26.6 °F 12% 29.92 in - SSW 6.9 mph - N/A   Clear
9:00 PM 82.4 °F 23.0 °F 11% 29.95 in - SW 10.4 mph - N/A   Unknown
10:00 PM 78.8 °F 26.6 °F 15% 29.95 in - SSW 6.9 mph - N/A   Unknown
11:00 PM 75 °F 28 °F 9%  in - SSW 6.9 mph - -  
11:00 PM 73.4 °F 28.4 °F 19% 29.98 in - SSW 5.8 mph - N/A   Unknown